Borger, TX

3:31 AM CST on December 14, 2017 (GMT -0600)
Hutchinson County

Weather History for KBGD - December, 2012

Change the Weather History Date:

Tuesday, December 4, 2012

  Actual Average Record
Temperature  
Mean Temperature 51 °F 41 °F  
Max Temperature 62 °F 53 °F 80 °F (1954)
Min Temperature 39 °F 29 °F 10 °F (2009)
Degree Days  
Heating Degree Days 14 24  
Month to date heating degree days 31 94  
Since 1 July heating degree days 568 811  
Cooling Degree Days 0 0  
Month to date cooling degree days 0 0  
Year to date cooling degree days 2524 1839  
Moisture  
Dew Point 18 °F    
Average Humidity 36    
Maximum Humidity 64    
Minimum Humidity 8    
Precipitation  
Precipitation 0.00 in 0.02 in 0.46 in (1999)
Month to date precipitation 0.00 0.08  
Year to date precipitation 15.62 21.03  
Snow  
Snow 0.00 in - - ()
Month to date snowfall 0.0  
Since 1 July snowfall 0.0  
Snow Depth 0.00 in    
Sea Level Pressure  
Sea Level Pressure 30.27 in    
Wind  
Wind Speed 5 mph (SSE)    
Max Wind Speed 15 mph    
Max Gust Speed 20 mph    
Visibility 10 miles    
Events      
T = Trace of Precipitation, MM = Missing Value Source: NWS Daily Summary

Daily Weather History Graph

Daily Weather History Graph

Search for Another Location

Airport or City:

Trip Planner

Search our weather history database for the weather conditions in past years. The results will help you decide how hot, cold, wet, or windy it might be!

Date:

Astronomy

Dec. 04, 2012 Rise Set
Actual Time 7:40 AM CST 5:31 PM CST
Civil Twilight 7:11 AM CST 6:00 PM CST
Nautical Twilight 6:40 AM CST 6:31 PM CST
Astronomical Twilight 6:09 AM CST 7:02 PM CST
Moon 11:13 PM CST (12/4) 11:42 AM CST (12/4)
Length of Visible Light 10h 48m
Length of Day
9h 51m
Waning Gibbous, 69% of the Moon is Illuminated
Dec 4
Waning Gibbous
Dec 6
Last Quarter
Dec 13
New
Dec 19
First Quarter
Dec 28
Full

Hourly Weather History & Observations

Time (CST) Temp. Windchill Dew Point Humidity Pressure Visibility Wind Dir Wind Speed Gust Speed Precip Events Conditions
12:51 AM 50.0 °F - 32.0 °F 50% 30.09 in 10.0 mi ENE 9.2 mph - N/A   Mostly Cloudy
1:51 AM 48.9 °F - 32.0 °F 52% 30.12 in 10.0 mi NE 5.8 mph - N/A   Mostly Cloudy
2:51 AM 46.9 °F - 30.9 °F 54% 30.14 in 10.0 mi North 5.8 mph - N/A   Clear
3:51 AM 46.9 °F - 30.9 °F 54% 30.18 in 10.0 mi NNW 3.5 mph - N/A   Mostly Cloudy
4:51 AM 45.0 °F 43.5 °F 30.0 °F 56% 30.22 in 10.0 mi West 3.5 mph - N/A   Partly Cloudy
5:51 AM 44.1 °F 41.5 °F 28.9 °F 55% 30.24 in 10.0 mi NNE 4.6 mph - N/A   Clear
6:51 AM 41.0 °F 39.0 °F 28.0 °F 60% 30.29 in 10.0 mi West 3.5 mph - N/A   Clear
7:51 AM 39.0 °F 36.8 °F 28.0 °F 65% 30.32 in 10.0 mi West 3.5 mph - N/A   Clear
9:51 AM 46.9 °F - 28.0 °F 48% 30.38 in 10.0 mi NW 4.6 mph - N/A   Clear
10:51 AM 52.0 °F - 27.0 °F 38% 30.38 in 10.0 mi Calm Calm - N/A   Clear
11:51 AM 55.9 °F - 23.0 °F 28% 30.35 in 10.0 mi Calm Calm - N/A   Clear
12:51 PM 57.9 °F - 18.0 °F 21% 30.32 in 10.0 mi Calm Calm - N/A   Clear
1:51 PM 59.0 °F - 9.0 °F 14% 30.31 in 10.0 mi Variable 3.5 mph - N/A   Clear
2:51 PM 61.0 °F - -2.9 °F 8% 30.29 in 10.0 mi East 3.5 mph - N/A   Clear
3:51 PM 61.0 °F - 1.9 °F 9% 30.28 in 10.0 mi Variable 3.5 mph - N/A   Clear
4:51 PM 60.1 °F - 3.0 °F 10% 30.28 in 10.0 mi SE 4.6 mph - N/A   Clear
5:51 PM 55.9 °F - 3.9 °F 12% 30.29 in 10.0 mi SSE 4.6 mph - N/A   Clear
6:51 PM 55.0 °F - 5.0 °F 13% 30.29 in 10.0 mi SSE 4.6 mph - N/A   Clear
7:51 PM 51.1 °F - 9.0 °F 18% 30.31 in 10.0 mi South 6.9 mph - N/A   Clear
8:51 PM 50.0 °F - 12.0 °F 22% 30.30 in 10.0 mi South 10.4 mph - N/A   Clear
9:51 PM 48.9 °F - 12.9 °F 24% 30.30 in 10.0 mi South 9.2 mph - N/A   Clear
10:51 PM 48.0 °F - 14.0 °F 26% 30.28 in 10.0 mi South 10.4 mph - N/A   Clear
11:51 PM 48.9 °F - 15.1 °F 26% 30.26 in 10.0 mi South 12.7 mph - N/A   Clear